Belen, NM

10:12 AM MST on December 13, 2017 (GMT -0700)
Belen

Weather History for KE80 - August, 2013

Change the Weather History Date:

Thursday, August 22, 2013

  Actual Average (KABQ) Record (KABQ)
Temperature  
Mean Temperature 77 °F -  
Max Temperature 91 °F 88 °F 97 °F (2007)
Min Temperature 63 °F 63 °F 52 °F (1917)
Cooling Degree Days 12    
Growing Degree Days 27 (Base 50)    
Moisture  
Dew Point 48 °F    
Average Humidity 38    
Maximum Humidity 61    
Minimum Humidity 19    
Precipitation  
Precipitation 0.00 in - - ()
Sea Level Pressure  
Sea Level Pressure 30.19 in    
Wind  
Wind Speed 6 mph (South)    
Max Wind Speed 13 mph    
Max Gust Speed 18 mph    
Visibility 10 miles    
Events      
Averages and records for this station are not official NWS values.
T = Trace of Precipitation, MM = Missing Value Source: NWS Daily Summary

Daily Weather History Graph

Daily Weather History Graph

Search for Another Location

Airport or City:

Trip Planner

Search our weather history database for the weather conditions in past years. The results will help you decide how hot, cold, wet, or windy it might be!

Date:

Astronomy

Aug. 22, 2013 Rise Set
Actual Time 6:33 AM MDT 7:46 PM MDT
Civil Twilight 6:07 AM MDT 8:12 PM MDT
Nautical Twilight 5:35 AM MDT 8:43 PM MDT
Astronomical Twilight 5:03 AM MDT 9:16 PM MDT
Moon 8:40 PM MDT (8/22) 8:18 AM MDT (8/22)
Length of Visible Light 14h 05m
Length of Day
13h 13m
Waning Gibbous, 96% of the Moon is Illuminated
Aug 22
Waning Gibbous
Aug 28
Last Quarter
Sep 5
New
Sep 12
First Quarter
Sep 19
Full

Hourly Weather History & Observations

Time (MDT) Temp. Heat Index Dew Point Humidity Pressure Visibility Wind Dir Wind Speed Gust Speed Precip Events Conditions
12:15 AM 68.9 °F - 51.3 °F 53% 30.20 in 10.0 mi WSW 5.8 mph - N/A   Clear
12:35 AM 70.9 °F - 51.1 °F 49% 30.20 in 10.0 mi ESE 4.6 mph - N/A   Clear
12:55 AM 72.5 °F - 50.0 °F 45% 30.21 in 10.0 mi South 6.9 mph - N/A   Clear
1:15 AM 70.0 °F - 51.1 °F 51% 30.22 in 10.0 mi South 9.2 mph - N/A   Clear
1:35 AM 69.6 °F - 51.8 °F 53% 30.22 in 10.0 mi South 4.6 mph - N/A   Clear
1:55 AM 68.2 °F - 52.0 °F 56% 30.21 in 10.0 mi SSW 5.8 mph - N/A   Clear
2:15 AM 70.3 °F - 51.8 °F 52% 30.21 in 10.0 mi South 5.8 mph - N/A   Clear
2:35 AM 69.1 °F - 51.8 °F 54% 30.21 in 10.0 mi South 6.9 mph - N/A   Clear
2:55 AM 67.3 °F - 51.3 °F 56% 30.21 in 10.0 mi SSE 8.1 mph - N/A   Clear
3:15 AM 66.9 °F - 50.5 °F 56% 30.21 in 10.0 mi South 6.9 mph - N/A   Clear
3:35 AM 67.1 °F - 49.8 °F 54% 30.20 in 10.0 mi SSE 5.8 mph - N/A   Clear
3:55 AM 65.3 °F - 50.2 °F 58% 30.20 in 10.0 mi SSE 6.9 mph - N/A   Clear
4:15 AM 65.3 °F - 49.6 °F 57% 30.20 in 10.0 mi SSE 5.8 mph - N/A   Clear
4:35 AM 65.3 °F - 49.6 °F 57% 30.20 in 10.0 mi South 5.8 mph - N/A   Scattered Clouds
4:55 AM 65.1 °F - 49.1 °F 56% 30.21 in 10.0 mi SSW 6.9 mph - N/A   Clear
5:15 AM 66.0 °F - 48.7 °F 54% 30.20 in 10.0 mi SSW 8.1 mph - N/A   Clear
5:35 AM 64.4 °F - 49.1 °F 58% 30.21 in 10.0 mi South 6.9 mph - N/A   Clear
5:55 AM 63.5 °F - 48.9 °F 59% 30.21 in 10.0 mi South 6.9 mph - N/A   Clear
6:15 AM 64.4 °F - 47.8 °F 55% 30.22 in 10.0 mi SW 4.6 mph - N/A   Clear
6:35 AM 63.1 °F - 48.2 °F 58% 30.23 in 10.0 mi Calm Calm - N/A   Clear
6:55 AM 63.5 °F - 48.0 °F 57% 30.23 in 10.0 mi Calm Calm - N/A   Scattered Clouds
7:15 AM 63.0 °F - 49.5 °F 61% 30.23 in 10.0 mi West 4.6 mph - N/A   Mostly Cloudy
7:35 AM 65.8 °F - 52.0 °F 61% 30.23 in 10.0 mi NW 3.5 mph - N/A   Scattered Clouds
7:55 AM 70.9 °F - 52.7 °F 53% 30.24 in 10.0 mi NNW 4.6 mph - N/A   Clear
8:15 AM 72.7 °F - 52.9 °F 50% 30.25 in 10.0 mi North 5.8 mph - N/A   Clear
8:35 AM 73.4 °F - 53.2 °F 49% 30.25 in 10.0 mi North 6.9 mph - N/A   Clear
8:55 AM 75.6 °F - 53.4 °F 46% 30.25 in 10.0 mi ENE 6.9 mph - N/A   Clear
9:15 AM 75.6 °F - 53.6 °F 46% 30.25 in 10.0 mi North 5.8 mph - N/A   Clear
9:35 AM 76.5 °F - 53.4 °F 45% 30.25 in 10.0 mi NNE 6.9 mph - N/A   Clear
9:55 AM 77.4 °F - 52.9 °F 42% 30.25 in 10.0 mi NNE 3.5 mph - N/A   Mostly Cloudy
10:15 AM 78.8 °F - 53.1 °F 41% 30.25 in 10.0 mi North 5.8 mph - N/A   Scattered Clouds
10:35 AM 79.9 °F - 52.9 °F 39% 30.25 in 10.0 mi Calm Calm - N/A   Scattered Clouds
10:55 AM 81.1 °F - 52.9 °F 37% 30.25 in 10.0 mi Calm Calm - N/A   Scattered Clouds
11:15 AM 82.2 °F - 52.7 °F 36% 30.25 in 10.0 mi South 3.5 mph - N/A   Clear
11:35 AM 83.5 °F 82.1 °F 53.1 °F 35% 30.25 in 10.0 mi South 3.5 mph - N/A   Scattered Clouds
11:55 AM 84.4 °F 82.9 °F 53.6 °F 35% 30.24 in 10.0 mi SE 4.6 mph - N/A   Clear
12:15 PM 84.0 °F 82.5 °F 53.1 °F 34% 30.23 in 10.0 mi South 6.9 mph - N/A   Scattered Clouds
12:35 PM 85.1 °F - 52.9 °F 33% 30.22 in 10.0 mi Calm Calm - N/A   Scattered Clouds
12:55 PM 85.8 °F - 52.7 °F 32% 30.22 in 10.0 mi SSW 9.2 mph - N/A   Clear
1:15 PM 87.1 °F - 52.9 °F 31% 30.21 in 10.0 mi SSE 8.1 mph - N/A   Scattered Clouds
1:35 PM 87.4 °F - 51.6 °F 29% 30.20 in 10.0 mi South 3.5 mph - N/A   Clear
1:55 PM 88.3 °F - 50.0 °F 27% 30.19 in 10.0 mi SE 11.5 mph 16.1 mph N/A   Clear
2:15 PM 88.9 °F - 48.2 °F 25% 30.19 in 10.0 mi SSE 8.1 mph 16.1 mph N/A   Clear
2:35 PM 89.4 °F - 47.3 °F 23% 30.18 in 10.0 mi South 9.2 mph - N/A   Clear
2:55 PM 90.0 °F - 45.5 °F 21% 30.17 in 10.0 mi SE 9.2 mph - N/A   Clear
3:15 PM 90.0 °F - 45.7 °F 22% 30.16 in 10.0 mi SE 12.7 mph - N/A   Clear
3:35 PM 89.1 °F - 44.8 °F 21% 30.14 in 10.0 mi Calm Calm - N/A   Clear
3:55 PM 91.4 °F - 44.2 °F 19% 30.14 in 10.0 mi East 4.6 mph - N/A   Clear
4:15 PM 91.4 °F - 43.2 °F 19% 30.12 in 10.0 mi SSE 8.1 mph 16.1 mph N/A   Clear
4:35 PM 91.0 °F - 43.2 °F 19% 30.12 in 10.0 mi South 12.7 mph - N/A   Clear
4:55 PM 90.3 °F - 43.0 °F 19% 30.11 in 10.0 mi SSW 8.1 mph 18.4 mph N/A   Clear
5:15 PM 90.5 °F - 42.6 °F 19% 30.10 in 10.0 mi SSW 10.4 mph - N/A   Clear
5:35 PM 90.1 °F - 42.8 °F 19% 30.11 in 10.0 mi SW 11.5 mph - N/A   Clear
5:55 PM 89.8 °F - 42.6 °F 19% 30.10 in 10.0 mi South 8.1 mph - N/A   Clear
6:15 PM 89.4 °F - 42.6 °F 20% 30.10 in 10.0 mi South 10.4 mph - N/A   Clear
6:35 PM 88.7 °F - 42.6 °F 20% 30.10 in 10.0 mi South 9.2 mph - N/A   Clear
6:55 PM 87.8 °F - 43.0 °F 21% 30.09 in 10.0 mi South 10.4 mph - N/A   Clear
7:15 PM 86.2 °F - 43.3 °F 22% 30.10 in 10.0 mi South 6.9 mph - N/A   Clear
7:35 PM 83.3 °F - 43.7 °F 25% 30.10 in 10.0 mi South 6.9 mph - N/A   Clear
7:55 PM 80.6 °F - 43.7 °F 27% 30.11 in 10.0 mi SSE 8.1 mph - N/A   Clear
8:15 PM 77.7 °F - 44.1 °F 30% 30.12 in 10.0 mi South 6.9 mph - N/A   Clear
8:35 PM 76.3 °F - 44.6 °F 32% 30.12 in 10.0 mi South 6.9 mph - N/A   Clear
8:55 PM 74.7 °F - 43.7 °F 33% 30.14 in 10.0 mi South 6.9 mph - N/A   Clear
9:15 PM 74.3 °F - 43.9 °F 34% 30.14 in 10.0 mi South 5.8 mph - N/A   Clear
9:35 PM 76.6 °F - 43.3 °F 30% 30.16 in 10.0 mi ESE 6.9 mph - N/A   Clear
9:55 PM 75.4 °F - 43.3 °F 32% 30.16 in 10.0 mi SE 5.8 mph - N/A   Clear
10:15 PM 75.9 °F - 41.7 °F 29% 30.17 in 10.0 mi South 4.6 mph - N/A   Clear
10:35 PM 72.9 °F - 42.1 °F 33% 30.17 in 10.0 mi SSE 5.8 mph - N/A   Clear
10:55 PM 75.6 °F - 38.3 °F 26% 30.16 in 10.0 mi SE 10.4 mph - N/A   Clear
11:15 PM 75.6 °F - 36.9 °F 25% 30.16 in 10.0 mi SE 9.2 mph - N/A   Clear
11:35 PM 75.2 °F - 36.1 °F 24% 30.16 in 10.0 mi SE 9.2 mph - N/A   Clear
11:55 PM 72.0 °F - 37.6 °F 29% 30.17 in 10.0 mi South 6.9 mph - N/A   Clear